User: anonymous   Login
Location: ?????????
(54.7630°N, 39.4991°E)
Time: 15:57:30
(UTC+00:00)
Language:

Cosmos 44 - Orbit

View from above orbital plane
View from above orbital plane
View from above satellite
View from above satellite

Ground track
Ground track

The orbit is defined by the following mean orbital elements,

1 00876U          26161.84730213 +.00000000 +00000-0 +29290-4 0 00004
2 00876  65.0606 344.4443 0151906 265.4363  92.9374 14.65732308    06
Epoch (UTC): 10 June 2026 20:20:06
Eccentricity: 0.0151906
inclination: 65.0606°
perigee height: 568 km
apogee height: 782 km
right ascension of ascending node: 344.4443°
argument of perigee: 265.4363°
revolutions per day: 14.65732308
mean anomaly at epoch: 92.9374°

The dashed part of the orbit path shows where the satellite is in the earth's shadow,  

DLR